Buckeye, AZ

5:59 AM MST on March 27, 2017 (GMT -0700)
Buckeye Municipal

Weather History for KBXK - July, 2013

Change the Weather History Date:

Saturday, July 20, 2013

  Actual Average (KGYR) Record (KGYR)
Temperature  
Mean Temperature 86 °F -  
Max Temperature 98 °F 103 °F 111 °F (2000)
Min Temperature 75 °F 79 °F 73 °F (2013)
Cooling Degree Days 22    
Growing Degree Days 36 (Base 50)    
Moisture  
Dew Point 70 °F    
Average Humidity 65    
Maximum Humidity 100    
Minimum Humidity 30    
Precipitation  
Precipitation 0.18 in - - ()
Sea Level Pressure  
Sea Level Pressure 29.81 in    
Wind  
Wind Speed 7 mph (WSW)    
Max Wind Speed 20 mph    
Max Gust Speed 26 mph    
Visibility 10 miles    
Events      
Averages and records for this station are not official NWS values.
T = Trace of Precipitation, MM = Missing Value Source: NWS Daily Summary

Daily Weather History Graph

Daily Weather History Graph

Search for Another Location

Airport or City:

Trip Planner

Search our weather history database for the weather conditions in past years. The results will help you decide how hot, cold, wet, or windy it might be!

Date:

Astronomy

Jul. 20, 2013 Rise Set
Actual Time 5:35 AM MST 7:38 PM MST
Civil Twilight 5:07 AM MST 8:06 PM MST
Nautical Twilight 4:33 AM MST 8:40 PM MST
Astronomical Twilight 3:57 AM MST 9:16 PM MST
Moon 5:46 PM MST (7/20) 3:19 AM MST (7/20)
Length of Visible Light 14h 58m
Length of Day
14h 03m
Waxing Gibbous, 94% of the Moon is Illuminated
Jul 20
Waxing Gibbous
Jul 22
Full
Jul 29
Last Quarter
Aug 6
New
Aug 14
First Quarter

Hourly Weather History & Observations

Time (MST) Temp. Heat Index Dew Point Humidity Pressure Visibility Wind Dir Wind Speed Gust Speed Precip Events Conditions
12:15 AM 77.0 °F - 73.4 °F 89% 29.86 in 4.0 mi North 11.5 mph 16.1 mph 0.05 in   Overcast
12:35 AM 77.0 °F - 71.6 °F 83% 29.86 in 5.0 mi NNW 18.4 mph 25.3 mph 0.07 in   Mostly Cloudy
12:55 AM 77.0 °F - 73.4 °F 89% 29.86 in 10.0 mi NNW 12.7 mph - 0.09 in   Overcast
1:15 AM 77.0 °F - 75.2 °F 94% 29.85 in 10.0 mi NW 6.9 mph - 0.01 in   Overcast
1:35 AM 77.0 °F - 75.2 °F 94% 29.84 in 10.0 mi North 8.1 mph - 0.01 in   Overcast
1:55 AM 77.0 °F - 75.2 °F 94% 29.84 in 10.0 mi NNW 5.8 mph - 0.02 in   Overcast
2:15 AM 77.0 °F - 77.0 °F 100% 29.85 in 7.0 mi WSW 3.5 mph - 0.02 in   Overcast
2:35 AM 77.0 °F - 77.0 °F 100% 29.84 in 6.0 mi NW 5.8 mph - 0.06 in   Unknown
2:55 AM 77.0 °F - 77.0 °F 100% 29.83 in 10.0 mi West 5.8 mph - 0.07 in   Overcast
3:15 AM 75.2 °F - 75.2 °F 100% 29.83 in 10.0 mi WSW 3.5 mph - N/A   Overcast
3:35 AM 75.2 °F - 75.2 °F 100% 29.83 in 10.0 mi NNW 4.6 mph - N/A   Overcast
3:55 AM 77.0 °F - 77.0 °F 100% 29.83 in 10.0 mi Calm Calm - N/A   Overcast
4:15 AM 77.0 °F - 77.0 °F 100% 29.83 in 10.0 mi WNW 4.6 mph - N/A   Overcast
4:35 AM 77.0 °F - 77.0 °F 100% 29.85 in 10.0 mi WNW 3.5 mph - N/A   Overcast
4:55 AM 77.0 °F - 77.0 °F 100% 29.86 in 10.0 mi West 3.5 mph - N/A   Overcast
5:15 AM 75.2 °F - 75.2 °F 100% 29.87 in 10.0 mi WSW 5.8 mph - N/A   Overcast
5:35 AM 75.2 °F - 75.2 °F 100% 29.87 in 10.0 mi West 4.6 mph - N/A   Overcast
5:55 AM 75.2 °F - 75.2 °F 100% 29.87 in 10.0 mi SW 4.6 mph - N/A   Overcast
6:15 AM 77.0 °F - 77.0 °F 100% 29.88 in 10.0 mi SSE 4.6 mph - N/A   Mostly Cloudy
6:35 AM 77.0 °F - 77.0 °F 100% 29.88 in 10.0 mi SW 8.1 mph - N/A   Partly Cloudy
6:55 AM 77.0 °F - 77.0 °F 100% 29.88 in 10.0 mi SSW 5.8 mph - N/A   Clear
7:15 AM 77.0 °F - 77.0 °F 100% 29.89 in 10.0 mi SSW 5.8 mph - N/A   Partly Cloudy
7:35 AM 77.0 °F - 77.0 °F 100% 29.89 in 10.0 mi SSW 5.8 mph - N/A   Clear
7:55 AM 77.0 °F - 77.0 °F 100% 29.90 in 10.0 mi South 5.8 mph - N/A   Partly Cloudy
8:15 AM 77.0 °F - 75.2 °F 94% 29.89 in 10.0 mi South 5.8 mph - N/A   Clear
8:35 AM 80.6 °F 86.2 °F 75.2 °F 84% 29.90 in 10.0 mi SSW 5.8 mph - N/A   Clear
8:55 AM 80.6 °F 85.4 °F 73.4 °F 79% 29.89 in 10.0 mi South 4.6 mph - N/A   Clear
9:15 AM 82.4 °F 87.2 °F 71.6 °F 70% 29.89 in 10.0 mi South 4.6 mph - N/A   Clear
9:35 AM 82.4 °F 87.2 °F 71.6 °F 70% 29.89 in 10.0 mi Calm Calm - N/A   Clear
9:55 AM 82.4 °F 87.2 °F 71.6 °F 70% 29.88 in 10.0 mi SE 4.6 mph - N/A   Clear
10:15 AM 84.2 °F 89.6 °F 71.6 °F 66% 29.88 in 10.0 mi South 3.5 mph - N/A   Clear
10:35 AM 86.0 °F 91.8 °F 71.6 °F 62% 29.87 in 10.0 mi Calm Calm - N/A   Clear
10:55 AM 86.0 °F 89.4 °F 68.0 °F 55% 29.87 in 10.0 mi West 4.6 mph - N/A   Clear
11:15 AM 87.8 °F 92.6 °F 69.8 °F 55% 29.86 in 10.0 mi South 3.5 mph - N/A   Clear
11:35 AM 89.6 °F 93.4 °F 68.0 °F 49% 29.85 in 10.0 mi South 5.8 mph - N/A   Clear
11:55 AM 89.6 °F 93.4 °F 68.0 °F 49% 29.85 in 10.0 mi South 5.8 mph - N/A   Clear
12:15 PM 91.4 °F 94.0 °F 66.2 °F 43% 29.84 in 10.0 mi West 3.5 mph - N/A   Clear
12:35 PM 91.4 °F 94.0 °F 66.2 °F 43% 29.83 in 10.0 mi West 4.6 mph - N/A   Clear
12:55 PM 91.4 °F 94.0 °F 66.2 °F 43% 29.81 in 10.0 mi SW 3.5 mph - N/A   Clear
1:15 PM 91.4 °F 94.0 °F 66.2 °F 43% 29.80 in 10.0 mi Calm Calm - N/A   Clear
1:35 PM 93.2 °F 96.2 °F 66.2 °F 41% 29.79 in 10.0 mi NE 3.5 mph - N/A   Clear
1:55 PM 93.2 °F 96.2 °F 66.2 °F 41% 29.77 in 10.0 mi SW 6.9 mph - N/A   Clear
2:15 PM 95.0 °F 97.0 °F 64.4 °F 36% 29.77 in 10.0 mi SW 9.2 mph - N/A   Clear
2:35 PM 95.0 °F 96.0 °F 62.6 °F 34% 29.76 in 10.0 mi NNW 3.5 mph - N/A   Clear
2:55 PM 96.8 °F 98.0 °F 62.6 °F 32% 29.75 in 10.0 mi WNW 9.2 mph - N/A   Clear
3:15 PM 96.8 °F 99.0 °F 64.4 °F 34% 29.74 in 10.0 mi WSW 4.6 mph - N/A   Clear
3:35 PM 98.6 °F 100.0 °F 62.6 °F 30% 29.73 in 10.0 mi WSW 4.6 mph - N/A   Clear
3:55 PM 98.6 °F 100.0 °F 62.6 °F 30% 29.72 in 10.0 mi SSW 8.1 mph - N/A   Clear
4:15 PM 98.6 °F 100.0 °F 62.6 °F 30% 29.72 in 10.0 mi WSW 12.7 mph 17.3 mph N/A   Clear
4:35 PM 98.6 °F 101.0 °F 64.4 °F 32% 29.72 in 10.0 mi WSW 13.8 mph 21.9 mph N/A   Clear
4:55 PM 98.6 °F 101.0 °F 64.4 °F 32% 29.73 in 10.0 mi WSW 12.7 mph 17.3 mph N/A   Clear
5:15 PM 98.6 °F 101.0 °F 64.4 °F 32% 29.72 in 10.0 mi WSW 12.7 mph 17.3 mph N/A   Clear
5:35 PM 95.0 °F 98.5 °F 66.2 °F 39% 29.72 in 10.0 mi NNW 19.6 mph 26.5 mph N/A   Scattered Clouds
5:55 PM 93.2 °F 94.9 °F 64.4 °F 38% 29.72 in 10.0 mi NNW 17.3 mph 24.2 mph N/A   Partly Cloudy
6:15 PM 93.2 °F 96.2 °F 66.2 °F 41% 29.73 in 10.0 mi NW 13.8 mph 18.4 mph N/A   Clear
6:35 PM 91.4 °F 93.2 °F 64.4 °F 41% 29.73 in 10.0 mi NW 10.4 mph - N/A   Clear
6:55 PM 91.4 °F 93.2 °F 64.4 °F 41% 29.72 in 10.0 mi WNW 10.4 mph - N/A   Clear
7:15 PM 91.4 °F 93.2 °F 64.4 °F 41% 29.72 in 10.0 mi NW 6.9 mph - N/A   Clear
7:35 PM 89.6 °F 90.1 °F 62.6 °F 40% 29.73 in 10.0 mi WNW 6.9 mph - N/A   Partly Cloudy
7:55 PM 89.6 °F 91.1 °F 64.4 °F 43% 29.75 in 10.0 mi NNW 6.9 mph - N/A   Mostly Cloudy
8:15 PM 89.6 °F 91.1 °F 64.4 °F 43% 29.76 in 10.0 mi WNW 4.6 mph - N/A   Overcast
8:35 PM 89.6 °F 91.1 °F 64.4 °F 43% 29.77 in 10.0 mi Calm Calm - N/A   Overcast
8:55 PM 89.6 °F 92.2 °F 66.2 °F 46% 29.78 in 10.0 mi SW 4.6 mph - N/A   Mostly Cloudy
9:15 PM 89.6 °F 92.2 °F 66.2 °F 46% 29.78 in 10.0 mi Calm Calm - N/A   Mostly Cloudy
9:35 PM 89.6 °F 92.2 °F 66.2 °F 46% 29.80 in 10.0 mi Calm Calm - N/A   Overcast
9:55 PM 89.6 °F 91.1 °F 64.4 °F 43% 29.81 in 10.0 mi Calm Calm - N/A   Overcast
10:15 PM 84.2 °F 87.3 °F 68.0 °F 58% 29.81 in 10.0 mi East 12.7 mph - N/A   Overcast
10:35 PM 84.2 °F 89.6 °F 71.6 °F 66% 29.80 in 10.0 mi ENE 6.9 mph - N/A   Mostly Cloudy
10:55 PM 84.2 °F 89.6 °F 71.6 °F 66% 29.80 in 10.0 mi ENE 8.1 mph - N/A   Mostly Cloudy
11:15 PM 84.2 °F 88.4 °F 69.8 °F 62% 29.81 in 10.0 mi East 8.1 mph - N/A   Overcast
11:35 PM 84.2 °F 89.6 °F 71.6 °F 66% 29.81 in 10.0 mi ESE 8.1 mph - N/A   Overcast
11:55 PM 84.2 °F 89.6 °F 71.6 °F 66% 29.81 in 10.0 mi SE 6.9 mph - N/A   Overcast